H1 CPF 2 NER 2021 12 24 9 358 01 glonass137 H2 1705501 9137 42939 2021 12 24 0 0 0 2021 12 27 23 45 0 900 1 1 0 0 0 1 H9 10 0 59572 0.00000 0 14772930.807 -14687592.352 14722839.875 10 0 59572 900.00000 0 16206438.702 -15520949.237 12129045.687 10 0 59572 1800.00000 0 17289484.940 -16284584.758 9299642.529 10 0 59572 2700.00000 0 18018569.211 -16920571.908 6289557.361 10 0 59572 3600.00000 0 18403014.012 -17373299.175 3157251.255 10 0 59572 4500.00000 0 18464361.318 -17591963.021 -36416.715 10 0 59572 5400.00000 0 18235267.590 -17532875.452 -3229374.482 10 0 59572 6300.00000 0 17757944.130 -17161488.291 -6359547.485 10 0 59572 7200.00000 0 17082209.134 -16454047.558 -9366070.428 10 0 59572 8100.00000 0 16263234.307 -15398806.889 -12190476.093 10 0 59572 9000.00000 0 15359081.865 -13996747.518 -14777837.430 10 0 59572 9900.00000 0 14428136.599 -12261773.282 -17077840.032 10 0 59572 10800.00000 0 13526542.038 -10220371.233 -19045763.742 10 0 59572 11700.00000 0 12705749.397 -7910751.053 -20643354.085 10 0 59572 12600.00000 0 12010283.042 -5381498.431 -21839566.501 10 0 59572 13500.00000 0 11475816.831 -2689797.913 -22611169.089 10 0 59572 14400.00000 0 11127642.336 100701.305 -22943192.430 10 0 59572 15300.00000 0 10979593.324 2922288.222 -22829218.070 10 0 59572 16200.00000 0 11033471.417 5705762.071 -22271500.423 10 0 59572 17100.00000 0 11278996.791 8383067.166 -21280920.003 10 0 59572 18000.00000 0 11694285.540 10889881.494 -19876769.095 10 0 59572 18900.00000 0 12246833.245 13168052.121 -18086374.149 10 0 59572 19800.00000 0 12894962.918 15167776.853 -15944562.195 10 0 59572 20700.00000 0 13589675.978 16849442.072 -13492981.682 10 0 59572 21600.00000 0 14276827.906 18185041.180 -10779290.865 10 0 59572 22500.00000 0 14899536.499 19159115.484 -7856229.488 10 0 59572 23400.00000 0 15400720.804 19769179.356 -4780591.940 10 0 59572 24300.00000 0 15725663.237 20025613.151 -1612121.964 10 0 59572 25200.00000 0 15824486.412 19951029.664 1587649.366 10 0 59572 26100.00000 0 15654439.755 19579141.962 4756599.506 10 0 59572 27000.00000 0 15181899.076 18953181.405 7833220.615 10 0 59572 27900.00000 0 14383994.347 18123933.384 10757812.478 10 0 59572 28800.00000 0 13249796.678 17147474.254 13473638.795 10 0 59572 29700.00000 0 11781014.025 16082705.250 15928024.538 10 0 59572 30600.00000 0 9992165.740 14988787.439 18073373.359 10 0 59572 31500.00000 0 7910227.947 13922585.553 19868085.664 10 0 59572 32400.00000 0 5573763.647 12936227.967 21277360.208 10 0 59572 33300.00000 0 3031572.825 12074884.827 22273864.327 10 0 59572 34200.00000 0 340917.700 11374857.124 22838260.419 10 0 59572 35100.00000 0 -2434604.308 10862056.313 22959579.084 10 0 59572 36000.00000 0 -5227452.867 10550937.748 22635432.039 10 0 59572 36900.00000 0 -7968704.206 10443932.329 21872060.814 10 0 59572 37800.00000 0 -10590672.839 10531399.999 20684220.147 10 0 59572 38700.00000 0 -13029487.913 10792107.062 19094897.886 10 0 59572 39600.00000 0 -15227518.109 11194207.484 17134876.209 10 0 59572 40500.00000 0 -17135545.122 11696687.215 14842141.847 10 0 59572 41400.00000 0 -18714595.889 12251211.137 12261155.865 10 0 59572 42300.00000 0 -19937357.516 12804295.145 9441996.427 10 0 59572 43200.00000 0 -20789116.149 13299711.924 6439390.490 10 0 59572 44100.00000 0 -21268180.709 13681028.847 3311652.797 10 0 59572 45000.00000 0 -21385773.855 13894170.448 119552.718 10 0 59572 45900.00000 0 -21165395.037 13889896.591 -3074868.941 10 0 59572 46800.00000 0 -20641682.703 13626090.681 -6209509.758 10 0 59572 47700.00000 0 -19858823.977 13069760.106 -9223417.979 10 0 59572 48600.00000 0 -18868579.337 12198663.159 -12057982.999 10 0 59572 49500.00000 0 -17728006.147 11002492.394 -14658080.262 10 0 59572 50400.00000 0 -16496977.622 9483563.184 -16973147.602 10 0 59572 51300.00000 0 -15235602.383 7656977.193 -18958171.705 10 0 59572 52200.00000 0 -14001653.773 5550252.602 -20574565.298 10 0 59572 53100.00000 0 -12848117.504 3202435.561 -21790917.888 10 0 59572 54000.00000 0 -11820960.958 662729.019 -22583605.673 10 0 59572 54900.00000 0 -10957217.840 -2011304.641 -22937249.023 10 0 59572 55800.00000 0 -10283468.421 -4755892.877 -22845008.960 10 0 59572 56700.00000 0 -9814778.742 -7503465.323 -22308717.250 10 0 59572 57600.00000 0 -9554142.733 -10185229.385 -21338837.857 10 0 59572 58500.00000 0 -9492449.986 -12733802.450 -19954260.707 10 0 59572 59400.00000 0 -9608979.778 -15085791.821 -18181931.902 10 0 59572 60300.00000 0 -9872399.788 -17184215.629 -16056327.546 10 0 59572 61200.00000 0 -10242226.754 -18980664.492 -13618781.403 10 0 59572 62100.00000 0 -10670686.832 -20437114.588 -10916679.429 10 0 59572 63000.00000 0 -11104896.565 -21527317.308 -8002536.748 10 0 59572 63900.00000 0 -11489271.879 -22237708.247 -4932975.178 10 0 59572 64800.00000 0 -11768062.826 -22567798.553 -1767621.282 10 0 59572 65700.00000 0 -11887906.526 -22530033.302 1432053.435 10 0 59572 66600.00000 0 -11800289.974 -22149123.851 4603927.284 10 0 59572 67500.00000 0 -11463818.270 -21460883.338 7686434.638 10 0 59572 68400.00000 0 -10846192.020 -20510615.155 10619760.052 10 0 59572 69300.00000 0 -9925810.068 -19351122.938 13346996.888 10 0 59572 70200.00000 0 -8692929.484 -18040426.293 15815248.034 10 0 59572 71100.00000 0 -7150333.367 -16639278.529 17976647.679 10 0 59572 72000.00000 0 -5313477.683 -15208590.719 19789284.643 10 0 59572 72900.00000 0 -3210110.088 -13806869.931 21218010.017 10 0 59572 73800.00000 0 -879375.537 -12487778.623 22235114.101 10 0 59572 74700.00000 0 1629555.120 -11297916.853 22820860.156 10 0 59572 75600.00000 0 4259277.788 -10274919.474 22963865.205 10 0 59572 76500.00000 0 6946295.881 -9445947.217 22661320.888 10 0 59572 77400.00000 0 9623421.521 -8826634.207 21919050.210 10 0 59572 78300.00000 0 12222338.845 -8420535.400 20751398.966 10 0 59572 79200.00000 0 14676224.180 -8219096.705 19180963.514 10 0 59572 80100.00000 0 16922315.204 -8202148.839 17238159.521 10 0 59572 81000.00000 0 18904323.077 -8338904.095 14960639.288 10 0 59572 81900.00000 0 20574587.733 -8589414.129 12392568.024 10 0 59572 82800.00000 0 21895886.739 -8906427.456 9583772.384 10 0 59572 83700.00000 0 22842822.368 -9237568.335 6588777.119 10 0 59572 84600.00000 0 23402728.915 -9527744.930 3465748.079 10 0 59572 85500.00000 0 23576062.139 -9721684.675 275362.061 10 0 59573 0.00000 0 23376254.561 -9766489.078 -2920374.192 10 0 59573 900.00000 0 22829042.543 -9614099.067 -6059334.190 10 0 59573 1800.00000 0 21971293.973 -9223565.574 -9080482.637 10 0 59573 2700.00000 0 20849385.822 -8563028.197 -11925068.652 10 0 59573 3600.00000 0 19517200.445 -7611316.931 -14537773.084 10 0 59573 4500.00000 0 18033825.421 -6359108.043 -16867788.657 10 0 59573 5400.00000 0 16461054.196 -4809583.995 -18869811.256 10 0 59573 6300.00000 0 14860793.062 -2978568.277 -20504922.816 10 0 59573 7200.00000 0 13292483.787 -894128.330 -21741348.570 10 0 59573 8100.00000 0 11810650.250 1404337.966 -22555074.082 10 0 59573 9000.00000 0 10462671.948 3867495.032 -22930310.376 10 0 59573 9900.00000 0 9286877.466 6437884.191 -22859798.387 10 0 59573 10800.00000 0 8311037.295 9052085.226 -22344947.252 10 0 59573 11700.00000 0 7551318.415 11643135.502 -21395803.981 10 0 59573 12600.00000 0 7011743.624 14143106.424 -20030855.345 10 0 59573 13500.00000 0 6684177.240 16485730.495 -18276665.919 10 0 59573 14400.00000 0 6548836.735 18608970.104 -16167359.340 10 0 59573 15300.00000 0 6575307.706 20457421.412 -13743952.817 10 0 59573 16200.00000 0 6724018.444 21984453.655 -11053557.819 10 0 59573 17100.00000 0 6948110.994 23153995.126 -8148462.382 10 0 59573 18000.00000 0 7195628.922 23941891.756 -5085113.044 10 0 59573 18900.00000 0 7411928.636 24336782.224 -1923016.283 10 0 59573 19800.00000 0 7542211.686 24340453.691 1276418.977 10 0 59573 20700.00000 0 7534070.435 23967664.059 4451074.942 10 0 59573 21600.00000 0 7339938.957 23245439.101 7539331.177 10 0 59573 22500.00000 0 6919345.113 22211874.723 10481259.855 10 0 59573 23400.00000 0 6240868.243 20914495.370 13219786.640 10 0 59573 24300.00000 0 5283719.407 19408238.006 15701794.748 10 0 59573 25200.00000 0 4038877.013 17753146.567 17879151.056 10 0 59573 26100.00000 0 2509729.409 16011873.626 19709634.672 10 0 59573 27000.00000 0 712196.644 14247093.766 21157750.603 10 0 59573 27900.00000 0 -1325674.785 12518936.462 22195413.401 10 0 59573 28800.00000 0 -3564628.346 10882545.234 22802488.146 10 0 59573 29700.00000 0 -5955588.160 9385864.310 22967178.879 10 0 59573 30600.00000 0 -8441467.464 8067744.349 22686257.361 10 0 59573 31500.00000 0 -10959320.942 6956445.568 21965127.835 10 0 59573 32400.00000 0 -13442752.853 6068599.954 20817726.456 10 0 59573 33300.00000 0 -15824482.129 5408675.262 19266256.907 10 0 59573 34200.00000 0 -18038958.768 4968962.701 17340766.716 10 0 59573 35100.00000 0 -20024923.557 4730088.365 15078571.685 10 0 59573 36000.00000 0 -21727805.043 4662026.645 12523538.743 10 0 59573 36900.00000 0 -23101854.035 4725572.807 9725240.338 10 0 59573 37800.00000 0 -24111926.589 4874212.447 6737996.129 10 0 59573 38700.00000 0 -24734840.714 5056308.726 3619820.100 10 0 59573 39600.00000 0 -24960249.716 5217514.587 431293.464 10 0 59573 40500.00000 0 -24790995.254 5303307.399 -2765614.646 10 0 59573 41400.00000 0 -24242925.056 5261538.023 -5908755.433 10 0 59573 42300.00000 0 -23344182.786 5044885.497 -8937013.473 10 0 59573 43200.00000 0 -22133999.947 4613112.331 -11791500.315 10 0 59573 44100.00000 0 -20661040.754 3935023.807 -14416704.753 10 0 59573 45000.00000 0 -18981369.827 2990047.197 -16761576.714 10 0 59573 45900.00000 0 -17156128.466 1769362.918 -18780523.271 10 0 59573 46800.00000 0 -15249017.371 276538.660 -20434297.182 10 0 59573 47700.00000 0 -13323691.744 -1472361.431 -21690760.549 10 0 59573 48600.00000 0 -11441178.064 -3449198.245 -22525508.961 10 0 59573 49500.00000 0 -9657420.644 -5614693.323 -22922344.228 10 0 59573 50400.00000 0 -8021060.408 -7919840.318 -22873586.848 10 0 59573 51300.00000 0 -6571538.269 -10307734.176 -22380222.499 10 0 59573 52200.00000 0 -5337601.627 -12715742.459 -21451879.994 10 0 59573 53100.00000 0 -4336275.587 -15077928.726 -20106641.337 10 0 59573 54000.00000 0 -3572340.763 -17327627.534 -18370687.680 10 0 59573 54900.00000 0 -3038338.294 -19400064.090 -16277788.064 10 0 59573 55800.00000 0 -2715100.592 -21234909.613 -13868640.873 10 0 59573 56700.00000 0 -2572784.158 -22778666.120 -11190080.728 10 0 59573 57600.00000 0 -2572359.782 -23986781.363 -8294166.215 10 0 59573 58500.00000 0 -2667496.153 -24825405.796 -5237166.257 10 0 59573 59400.00000 0 -2806756.371 -25272718.497 -2078464.986 10 0 59573 60300.00000 0 -2936013.658 -25319766.964 1120593.438 10 0 59573 61200.00000 0 -3000983.430 -24970786.112 4297897.230 10 0 59573 62100.00000 0 -2949763.995 -24242983.667 7391773.194 10 0 59573 63000.00000 0 -2735277.939 -23165801.562 10342183.123 10 0 59573 63900.00000 0 -2317510.560 -21779684.824 13091886.916 10 0 59573 64800.00000 0 -1665450.407 -20134410.025 15587549.971 10 0 59573 65700.00000 0 -758649.589 -18287043.585 17780773.579 10 0 59573 66600.00000 0 411662.369 -16299615.482 19629028.691 10 0 59573 67500.00000 0 1841958.626 -14236605.513 21096475.568 10 0 59573 68400.00000 0 3516315.983 -12162346.677 22154654.090 10 0 59573 69300.00000 0 5406841.835 -10138453.520 22783031.942 10 0 59573 70200.00000 0 7474610.479 -8221381.875 22969400.677 10 0 59573 71100.00000 0 9671071.090 -6460220.787 22710112.370 10 0 59573 72000.00000 0 11939869.979 -4894807.768 22010152.417 10 0 59573 72900.00000 0 14219012.686 -3554244.944 20883046.987 10 0 59573 73800.00000 0 16443277.189 -2455877.114 19350606.490 10 0 59573 74700.00000 0 18546778.802 -1604773.642 17442509.460 10 0 59573 75600.00000 0 20465580.841 -993735.141 15195734.110 10 0 59573 76500.00000 0 22140242.797 -603824.096 12653847.715 10 0 59573 77400.00000 0 23518199.880 -405396.727 9866166.852 10 0 59573 78300.00000 0 24555874.525 -359592.207 6886804.119 10 0 59573 79200.00000 0 25220431.239 -420216.097 3773619.348 10 0 59573 80100.00000 0 25491100.783 -535938.000 587095.607 10 0 59573 81000.00000 0 25360017.670 -652709.983 -2610838.088 10 0 59573 81900.00000 0 24832535.279 -716302.696 -5758014.135 10 0 59573 82800.00000 0 23927004.876 -674851.036 -8793239.656 10 0 59573 83700.00000 0 22674027.540 -481300.528 -11657491.518 10 0 59573 84600.00000 0 21115210.232 -95649.814 -14295069.194 10 0 59573 85500.00000 0 19301478.264 513106.771 -16654682.312 10 0 59574 0.00000 0 17291015.296 1365419.725 -18690451.202 10 0 59574 900.00000 0 15146916.266 2470075.531 -20362801.754 10 0 59574 1800.00000 0 12934654.556 3823585.077 -21639234.388 10 0 59574 2700.00000 0 10719465.833 5410097.700 -22494956.047 10 0 59574 3600.00000 0 8563760.547 7201844.399 -22913360.332 10 0 59574 4500.00000 0 6524671.941 9160092.964 -22886347.941 10 0 59574 5400.00000 0 4651841.606 11236575.769 -22414481.353 10 0 59574 6300.00000 0 2985534.298 13375331.292 -21506971.032 10 0 59574 7200.00000 0 1555159.818 15514882.926 -20181493.642 10 0 59574 8100.00000 0 378262.539 17590664.616 -18463845.918 10 0 59574 9000.00000 0 -539980.524 19537592.415 -16387440.910 10 0 59574 9900.00000 0 -1206733.451 21292674.743 -13992656.388 10 0 59574 10800.00000 0 -1640949.584 22797552.554 -11326048.005 10 0 59574 11700.00000 0 -1872318.783 24000863.300 -8439442.453 10 0 59574 12600.00000 0 -1939759.423 24860329.893 -5388928.350 10 0 59574 13500.00000 0 -1889520.012 25344487.354 -2233764.593 10 0 59574 14400.00000 0 -1772971.670 25433974.960 964772.434 10 0 59574 15300.00000 0 -1644185.678 25122339.953 4144580.018 10 0 59574 16200.00000 0 -1557399.279 24416319.395 7243935.234 10 0 59574 17100.00000 0 -1564477.544 23335588.653 10202692.410 10 0 59574 18000.00000 0 -1712479.036 21911987.380 12963448.451 10 0 59574 18900.00000 0 -2041428.548 20188255.664 15472653.484 10 0 59574 19800.00000 0 -2582391.277 18216333.374 17681645.523 10 0 59574 20700.00000 0 -3355929.967 16055293.851 19547589.406 10 0 59574 21600.00000 0 -4371010.469 13768998.027 21034302.404 10 0 59574 22500.00000 0 -5624402.294 11423566.402 22112951.170 10 0 59574 23400.00000 0 -7100600.108 9084773.693 22762607.099 10 0 59574 24300.00000 0 -8772270.419 6815473.794 22970649.984 10 0 59574 25200.00000 0 -10601205.960 4673161.259 22733012.523 10 0 59574 26100.00000 0 -12539749.136 2707769.826 22054261.118 10 0 59574 27000.00000 0 -14532626.447 959798.484 20947511.309 10 0 59574 27900.00000 0 -16519118.686 -541157.880 19434179.095 10 0 59574 28800.00000 0 -18435477.462 -1777412.916 17543572.378 10 0 59574 29700.00000 0 -20217488.189 -2743687.248 15312329.673 10 0 59574 30600.00000 0 -21803073.176 -3447080.837 12783716.084 10 0 59574 31500.00000 0 -23134826.313 -3906521.010 10006789.482 10 0 59574 32400.00000 0 -24162373.329 -4151709.950 7035452.316 10 0 59574 33300.00000 0 -24844458.482 -4221616.484 3927407.041 10 0 59574 34200.00000 0 -25150669.582 -4162576.284 743035.296 10 0 59574 35100.00000 0 -25062728.314 -4026081.356 -2455777.300 10 0 59574 36000.00000 0 -24575290.851 -3866352.971 -5606847.558 10 0 59574 36900.00000 0 -23696224.402 -3737801.545 -8648908.257 10 0 59574 37800.00000 0 -22446347.414 -3692481.908 -11522804.553 10 0 59574 38700.00000 0 -20858643.821 -3777652.679 -14172649.359 10 0 59574 39600.00000 0 -18976984.043 -4033544.042 -16546914.505 10 0 59574 40500.00000 0 -16854406.164 -4491429.350 -18599436.062 10 0 59574 41400.00000 0 -14551029.243 -5172083.060 -20290314.012 10 0 59574 42300.00000 0 -12131686.130 -6084690.990 -21586688.672 10 0 59574 43200.00000 0 -9663374.695 -7226259.771 -22463378.926 10 0 59574 44100.00000 0 -7212633.744 -8581551.188 -22903370.151 10 0 59574 45000.00000 0 -4842952.940 -10123544.951 -22898142.635 10 0 59574 45900.00000 0 -2612324.215 -11814411.208 -22447834.502 10 0 59574 46800.00000 0 -571036.064 -13606952.703 -21561236.237 10 0 59574 47700.00000 0 1240198.150 -15446456.684 -20255617.150 10 0 59574 48600.00000 0 2791700.933 -17272879.523 -18556387.236 10 0 59574 49500.00000 0 4065820.785 -19023272.981 -16496601.012 10 0 59574 50400.00000 0 5057411.653 -20634350.741 -14116312.944 10 0 59574 51300.00000 0 5773783.231 -22045087.936 -11461796.951 10 0 59574 52200.00000 0 6234125.743 -23199244.832 -8584645.044 10 0 59574 53100.00000 0 6468434.873 -24047708.844 -5540762.787 10 0 59574 54000.00000 0 6515983.578 -24550556.685 -2389281.168 10 0 59574 54900.00000 0 6423406.507 -24678750.069 808593.768 10 0 59574 55800.00000 0 6242479.018 -24415393.796 3990770.795 10 0 59574 56700.00000 0 6027685.568 -23756503.437 7095479.521 10 0 59574 57600.00000 0 5833680.992 -22711250.452 10062468.901 10 0 59574 58500.00000 0 5712752.525 -21301674.514 12834174.726 10 0 59574 59400.00000 0 5712390.182 -19561875.120 15356833.518 10 0 59574 60300.00000 0 5873068.383 -17536716.246 17581521.426 10 0 59574 61200.00000 0 6226332.577 -15280098.064 19465098.308 10 0 59574 62100.00000 0 6793271.721 -12852867.547 20971039.274 10 0 59574 63000.00000 0 7583441.225 -10320454.519 22070138.248 10 0 59574 63900.00000 0 8594282.034 -7750331.002 22741070.509 10 0 59574 64800.00000 0 9811060.902 -5209398.619 22970803.941 10 0 59574 65700.00000 0 11207335.210 -2761411.700 22754851.429 10 0 59574 66600.00000 0 12745923.874 -464542.129 22097359.674 10 0 59574 67500.00000 0 14380344.882 1630813.984 21011032.663 10 0 59574 68400.00000 0 16056660.549 3483897.701 19516890.858 10 0 59574 69300.00000 0 17715654.441 5065040.203 17643870.241 10 0 59574 70200.00000 0 19295249.904 6356647.693 15428268.177 10 0 59574 71100.00000 0 20733069.776 7353677.952 12913046.005 10 0 59574 72000.00000 0 21969030.443 8063589.293 10147001.105 10 0 59574 72900.00000 0 22947861.668 8505764.722 7183823.836 10 0 59574 73800.00000 0 23621446.210 8710436.141 4081057.138 10 0 59574 74700.00000 0 23950880.436 8717154.425 898978.923 10 0 59574 75600.00000 0 23908168.605 8572870.597 -2300571.012 10 0 59574 76500.00000 0 23477478.639 8329709.826 -5455396.387 10 0 59574 77400.00000 0 22655905.646 8042533.119 -8504158.124 10 0 59574 78300.00000 0 21453710.149 7766390.736 -11387572.075 10 0 59574 79200.00000 0 19894020.191 7553975.979 -14049566.848 10 0 59574 80100.00000 0 18012009.143 7453187.973 -16438378.530 10 0 59574 81000.00000 0 15853583.209 7504907.427 -18507560.590 10 0 59574 81900.00000 0 13473633.204 7741080.216 -20216889.078 10 0 59574 82800.00000 0 10933923.530 8183190.441 -21533145.380 10 0 59574 83700.00000 0 8300706.330 8841188.094 -22430761.482 10 0 59574 84600.00000 0 5642160.099 9712917.121 -22892315.451 10 0 59574 85500.00000 0 3025759.315 10784068.493 -22908867.810 10 0 59575 0.00000 0 515684.377 12028660.663 -22480132.712 10 0 59575 900.00000 0 -1829622.232 13410028.388 -21614480.546 10 0 59575 1800.00000 0 -3959649.204 14882277.083 -20328772.839 10 0 59575 2700.00000 0 -5833673.235 16392144.279 -18648031.981 10 0 59575 3600.00000 0 -7422199.808 17881188.731 -16604952.672 10 0 59575 4500.00000 0 -8707930.419 19288216.148 -14239264.412 10 0 59575 5400.00000 0 -9686217.099 20551839.761 -11596957.375 10 0 59575 6300.00000 0 -10364986.718 21613068.235 -8729386.613 10 0 59575 7200.00000 0 -10764139.765 22417812.156 -5692272.123 10 0 59575 8100.00000 0 -10914450.412 22919203.651 -2544614.317 10 0 59575 9000.00000 0 -10856015.614 23079631.507 652453.873 10 0 59575 9900.00000 0 -10636319.839 22872406.012 3836855.537 10 0 59575 10800.00000 0 -10307998.260 22282983.422 6946775.647 10 0 59575 11700.00000 0 -9926393.695 21309698.397 9921860.562 10 0 59575 12600.00000 0 -9547011.156 19963973.516 12704387.656 10 0 59575 13500.00000 0 -9222977.951 18269996.855 15240382.410 10 0 59575 14400.00000 0 -9002616.780 16263880.866 17480661.500 10 0 59575 15300.00000 0 -8927234.336 13992337.377 19381781.978 10 0 59575 16200.00000 0 -9029218.584 11510923.589 20906878.714 10 0 59575 17100.00000 0 -9330524.913 8881931.445 22026374.536 10 0 59575 18000.00000 0 -9841614.876 6172007.598 22718549.903 10 0 59575 18900.00000 0 -10560892.389 3449601.905 22969961.703 10 0 59575 19800.00000 0 -11474661.490 782349.397 22775703.495 10 0 59575 20700.00000 0 -12557608.076 -1765506.604 22139502.307 10 0 59575 21600.00000 0 -13773786.260 -4135544.441 21073650.098 10 0 59575 22500.00000 0 -15078068.976 -6277347.334 19598770.826 10 0 59575 23400.00000 0 -16418003.021 -8150350.062 17743427.079 10 0 59575 24300.00000 0 -17735991.734 -9725273.234 15543573.135 10 0 59575 25200.00000 0 -18971714.533 -10985086.196 13041864.204 10 0 59575 26100.00000 0 -20064682.288 -11925458.993 10286834.479 10 0 59575 27000.00000 0 -20956821.419 -12554685.194 7331959.251 10 0 59575 27900.00000 0 -21594977.990 -12893079.366 4234618.799 10 0 59575 28800.00000 0 -21933235.959 -12971875.116 1054984.040 10 0 59575 29700.00000 0 -21934951.317 -12831670.719 -2145154.348 10 0 59575 30600.00000 0 -21574415.475 -12520488.590 -5303590.292 10 0 59575 31500.00000 0 -20838076.805 -12091531.213 -8358916.096 10 0 59575 32400.00000 0 -19725267.776 -11600729.233 -11251721.438 10 0 59575 33300.00000 0 -18248406.011 -11104186.151 -13925753.595 10 0 59575 34200.00000 0 -16432659.880 -10655628.509 -16329015.649 10 0 59575 35100.00000 0 -14315091.795 -10303970.133 -18414780.886 10 0 59575 36000.00000 0 -11943314.438 -10091094.025 -20142503.417 10 0 59575 36900.00000 0 -9373715.636 -10049946.175 -21478607.179 10 0 59575 37800.00000 0 -6669325.582 -10203022.141 -22397138.142 10 0 59575 38700.00000 0 -3897414.945 -10561310.592 -22880267.325 10 0 59575 39600.00000 0 -1126923.616 -11123738.557 -22918635.128 10 0 59575 40500.00000 0 1574173.380 -11877141.954 -22511530.673 10 0 59575 41400.00000 0 4141453.799 -12796762.813 -21666902.959 10 0 59575 42300.00000 0 6516482.886 -13847252.419 -20401203.805 10 0 59575 43200.00000 0 8648994.454 -14984138.344 -18739065.754 10 0 59575 44100.00000 0 10498728.512 -16155693.807 -16712821.158 10 0 59575 45000.00000 0 12036849.942 -17305130.812 -14361871.782 10 0 59575 45900.00000 0 13246890.301 -18373024.853 -11731921.092 10 0 59575 46800.00000 0 14125174.789 -19299869.114 -8874084.073 10 0 59575 47700.00000 0 14680717.892 -20028650.537 -5843891.955 10 0 59575 48600.00000 0 14934593.594 -20507339.109 -2700211.332 10 0 59575 49500.00000 0 14918808.082 -20691185.321 495901.182 10 0 59575 50400.00000 0 14674723.689 -20544728.754 3682386.086 10 0 59575 51300.00000 0 14251101.734 -20043432.946 6797386.615 10 0 59575 52200.00000 0 13701847.777 -19174877.420 9780449.177 10 0 59575 53100.00000 0 13083555.172 -17939456.422 12573695.033 10 0 59575 54000.00000 0 12452951.112 -16350554.647 15122940.545 10 0 59575 54900.00000 0 11864353.131 -14434192.104 17378744.428 10 0 59575 55800.00000 0 11367243.375 -12228152.482 19297362.005 10 0 59575 56700.00000 0 11004062.722 -9780630.754 20841588.544 10 0 59575 57600.00000 0 10808317.405 -7148455.630 21981475.979 10 0 59575 58500.00000 0 10803077.560 -4394959.996 22694909.727 10 0 59575 59400.00000 0 10999930.673 -1587586.842 22968035.069 10 0 59575 60300.00000 0 11398433.884 1204671.067 22795525.269 10 0 59575 61200.00000 0 11986088.348 3913892.573 22180686.408 10 0 59575 62100.00000 0 12738837.123 6475803.033 21135396.894 10 0 59575 63000.00000 0 13622066.307 8832197.020 19679882.440 10 0 59575 63900.00000 0 14592068.098 10933109.141 17842330.347 10 0 59575 64800.00000 0 15597905.104 12738643.680 15658349.783 10 0 59575 65700.00000 0 16583598.265 14220387.667 13170287.709 10 0 59575 66600.00000 0 17490546.920 15362348.998 10426412.916 10 0 59575 67500.00000 0 18260079.456 16161381.016 7479983.341 10 0 59575 68400.00000 0 18836027.131 16627076.267 4388214.251 10 0 59575 69300.00000 0 19167212.243 16781134.348 1211167.186 10 0 59575 70200.00000 0 19209745.093 16656230.974 -1989418.691 10 0 59575 71100.00000 0 18929031.984 16294436.481 -5151329.837 10 0 59575 72000.00000 0 18301408.448 15745251.094 -8213092.162 10 0 59575 72900.00000 0 17315327.677 15063340.599 -11115171.225 10 0 59575 73800.00000 0 15972052.817 14306068.798 -13801134.822 10 0 59575 74700.00000 0 14285822.848 13530931.724 -16218754.643 10 0 59575 75600.00000 0 12283483.959 12793002.654 -18321025.174 10 0 59575 76500.00000 0 10003600.879 12142496.387 -20067079.754 10 0 59575 77400.00000 0 7495084.609 11622556.009 -21422985.836 10 0 59575 78300.00000 0 4815393.186 11267355.778 -22362404.171 10 0 59575 79200.00000 0 2028379.911 11100600.202 -22867099.325 10 0 59575 80100.00000 0 -798121.734 11134482.542 -22927291.948 10 0 59575 81000.00000 0 -3594876.554 11369146.476 -22541846.292 10 0 59575 81900.00000 0 -6293882.818 11792673.418 -21718289.656 10 0 59575 82800.00000 0 -8830955.110 12381595.842 -20472663.565 10 0 59575 83700.00000 0 -11148148.211 13101914.808 -18829209.707 10 0 59575 84600.00000 0 -13195922.000 13910578.699 -16819896.685 10 0 59575 85500.00000 0 -14934958.059 14757360.732 -14483796.787 99